Albany, NY

5:09 AM EST on November 22, 2019 (GMT -0500)
Albany International

Weather History for KALB - September, 2019

Change the Weather History Date:

Saturday, September 28, 2019

  Actual Average Record
Temperature  
Mean Temperature 68 °F 57 °F  
Max Temperature 82 °F 67 °F 83 °F (1941)
Min Temperature 54 °F 46 °F 24 °F (1947)
Degree Days  
Heating Degree Days 0 9  
Month to date heating degree days 64 124  
Since 1 July heating degree days 66 147  
Cooling Degree Days 3 1  
Month to date cooling degree days 44 52  
Year to date cooling degree days 767 595  
Growing Degree Days 18 (Base 50)    
Moisture  
Dew Point 57 °F    
Average Humidity 68    
Maximum Humidity 86    
Minimum Humidity 50    
Precipitation  
Precipitation 0.04 in 0.12 in 1.12 in (1909)
Month to date precipitation 2.22 3.06  
Year to date precipitation 31.20 29.21  
Sea Level Pressure  
Sea Level Pressure 30.04 in    
Wind  
Wind Speed 7 mph (SSW)    
Max Wind Speed 18 mph    
Max Gust Speed 24 mph    
Visibility 10 miles    
Events      
T = Trace of Precipitation, MM = Missing Value Source: NWS Daily Summary

Daily Weather History Graph

Daily Weather History Graph

Search for Another Location

Airport or City:

Astronomy

Sep. 28, 2019 Rise Set
Actual Time 6:48 AM EDT 6:42 PM EDT
Civil Twilight 6:20 AM EDT 7:10 PM EDT
Nautical Twilight 5:47 AM EDT 7:43 PM EDT
Astronomical Twilight 5:14 AM EDT 8:16 PM EDT
Moon 6:19 AM EDT (9/28) 7:07 PM EDT (9/28)
Length of Visible Light 12h 49m
Length of Day
11h 53m
Waning Crescent, 0% of the Moon is Illuminated
Sep 28
Waning Crescent
Sep 28
New
Oct 5
First Quarter
Oct 13
Full
Oct 21
Last Quarter

Hourly Weather History & Observations

Time (EDT) Temp. Heat Index Dew Point Humidity Pressure Visibility Wind Dir Wind Speed Gust Speed Precip Events Conditions
12:51 AM 55.9 °F - 46.9 °F 72% 30.06 in 10.0 mi Calm Calm - N/A   Partly Cloudy
1:51 AM 57.9 °F - 48.0 °F 70% 30.06 in 10.0 mi South 8.1 mph - N/A   Partly Cloudy
2:51 AM 57.0 °F - 48.9 °F 74% 30.04 in 10.0 mi South 6.9 mph - N/A   Partly Cloudy
3:51 AM 59.0 °F - 51.1 °F 75% 30.05 in 10.0 mi South 6.9 mph - N/A   Partly Cloudy
4:51 AM 55.0 °F - 48.9 °F 80% 30.06 in 10.0 mi SW 3.5 mph - N/A   Partly Cloudy
5:51 AM 55.9 °F - 51.1 °F 84% 30.07 in 10.0 mi Calm Calm - N/A   Scattered Clouds
6:51 AM 55.9 °F - 52.0 °F 87% 30.08 in 10.0 mi SSE 3.5 mph - N/A   Scattered Clouds
7:51 AM 61.0 °F - 55.0 °F 81% 30.07 in 10.0 mi South 8.1 mph - N/A   Scattered Clouds
8:51 AM 64.0 °F - 55.9 °F 75% 30.07 in 10.0 mi South 10.4 mph - N/A   Scattered Clouds
9:51 AM 66.9 °F - 57.0 °F 70% 30.05 in 10.0 mi SSE 12.7 mph 19.6 mph N/A   Partly Cloudy
10:51 AM 71.1 °F - 57.0 °F 61% 30.05 in 10.0 mi South 9.2 mph - N/A   Partly Cloudy
11:51 AM 73.9 °F - 55.9 °F 53% 30.02 in 10.0 mi South 11.5 mph 20.7 mph N/A   Partly Cloudy
12:51 PM 77.0 °F - 57.9 °F 52% 30.00 in 10.0 mi South 13.8 mph 21.9 mph N/A   Partly Cloudy
1:51 PM 80.1 °F 80.9 °F 60.1 °F 50% 29.98 in 10.0 mi South 15.0 mph 20.7 mph N/A   Partly Cloudy
2:51 PM 80.1 °F 81.1 °F 61.0 °F 52% 29.98 in 10.0 mi SSE 8.1 mph - N/A   Mostly Cloudy
3:51 PM 81.0 °F 81.9 °F 62.1 °F 52% 29.99 in 10.0 mi South 6.9 mph - N/A   Mostly Cloudy
4:51 PM 81.0 °F 81.9 °F 62.1 °F 52% 30.00 in 10.0 mi SSE 4.6 mph - N/A   Mostly Cloudy
5:51 PM 80.1 °F 81.9 °F 64.9 °F 60% 30.01 in 10.0 mi Calm Calm - N/A   Mostly Cloudy
6:51 PM 75.9 °F - 66.0 °F 71% 30.02 in 10.0 mi Calm Calm - N/A   Mostly Cloudy
7:51 PM 73.0 °F - 64.9 °F 76% 30.04 in 10.0 mi SSW 3.5 mph - N/A   Mostly Cloudy
8:51 PM 75.9 °F - 62.1 °F 62% 30.06 in 10.0 mi WNW 8.1 mph - N/A   Overcast
9:51 PM 73.9 °F - 62.1 °F 66% 30.07 in 10.0 mi NW 6.9 mph - 0.00 in   Overcast
10:51 PM 70.0 °F - 64.0 °F 81% 30.10 in 10.0 mi WNW 5.8 mph - 0.04 in   Overcast
11:51 PM 69.1 °F - 63.0 °F 81% 30.11 in 10.0 mi West 5.8 mph - N/A   Mostly Cloudy